NBL989 NWWW-YSSY

Flight info

Callsign NBL989
Flight time 2h 52m
Altitude 30000
Route POXAK3E POXAK B580 LENRI/N0482F320 B580 MISLY DCT RIKNI N774 MARLN
Aircraft B738/M-SDE2E3FGHIRWXY/LB1

Departure

Time 2026-04-16 04:22
Airport La Tontouta International Airport (NWWW)

Arrival

Time 2026-04-16 07:14
Airport Sydney Kingsford Smith International Airport (YSSY)
Time Latitude Longitude Altitude Speed Heading
2026-04-16 04:19 -22.00711 166.19975 13 ft 0 kts 121°
2026-04-16 04:21 -22.00719 166.19990 13 ft 17 kts 121°
2026-04-16 04:21 -22.00906 166.20336 16 ft 88 kts 121°
2026-04-16 04:21 -22.01332 166.21096 22 ft 147 kts 121°
2026-04-16 04:22 -22.01931 166.22167 293 ft 176 kts 119°
2026-04-16 04:22 -22.02522 166.23309 1183 ft 175 kts 125°
2026-04-16 04:22 -22.03426 166.24170 2041 ft 178 kts 158°
2026-04-16 04:22 -22.04756 166.24208 2214 ft 211 kts 198°
2026-04-16 04:23 -22.05912 166.23130 2414 ft 236 kts 239°
2026-04-16 04:23 -22.06625 166.21495 2800 ft 247 kts 243°
2026-04-16 04:23 -22.07435 166.19773 3059 ft 266 kts 239°
2026-04-16 04:23 -22.08395 166.18039 3710 ft 270 kts 237°
2026-04-16 04:24 -22.09455 166.16366 4534 ft 271 kts 234°
2026-04-16 04:24 -22.10607 166.14726 5217 ft 276 kts 233°
2026-04-16 04:24 -22.11818 166.13152 6200 ft 269 kts 233°
2026-04-16 04:24 -22.13036 166.11644 6995 ft 269 kts 231°
2026-04-16 04:25 -22.14305 166.10129 7615 ft 273 kts 231°
2026-04-16 04:25 -22.15608 166.08622 8263 ft 278 kts 230°
2026-04-16 04:25 -22.16956 166.07098 8881 ft 282 kts 229°
2026-04-16 04:25 -22.18306 166.05594 9605 ft 283 kts 228°
2026-04-16 04:26 -22.19688 166.04072 10264 ft 285 kts 226°
2026-04-16 04:26 -22.21109 166.02518 10563 ft 301 kts 226°
2026-04-16 04:26 -22.22624 166.00868 10762 ft 318 kts 227°
2026-04-16 04:26 -22.24233 165.99126 10920 ft 336 kts 226°
2026-04-16 04:27 -22.25917 165.97311 11276 ft 345 kts 227°
2026-04-16 04:27 -22.27626 165.95476 11813 ft 348 kts 226°
2026-04-16 04:27 -22.29355 165.93614 12318 ft 352 kts 226°
2026-04-16 04:27 -22.31085 165.91754 13036 ft 349 kts 226°
2026-04-16 04:28 -22.32809 165.89901 13605 ft 352 kts 226°
2026-04-16 04:28 -22.34559 165.88020 14005 ft 358 kts 226°
2026-04-16 04:28 -22.36337 165.86108 14309 ft 366 kts 226°
2026-04-16 04:28 -22.38148 165.84160 14753 ft 368 kts 226°
2026-04-16 04:29 -22.39975 165.82196 15183 ft 372 kts 226°
2026-04-16 04:29 -22.41800 165.80233 15742 ft 370 kts 226°
2026-04-16 04:29 -22.43639 165.78254 16129 ft 376 kts 226°
2026-04-16 04:29 -22.45499 165.76250 16567 ft 378 kts 227°
2026-04-16 04:30 -22.47363 165.74241 17033 ft 380 kts 227°
2026-04-16 04:30 -22.49240 165.72218 17538 ft 381 kts 227°
2026-04-16 04:30 -22.51123 165.70188 17997 ft 383 kts 227°
2026-04-16 04:30 -22.52990 165.68174 18427 ft 385 kts 227°
2026-04-16 04:31 -22.54891 165.66121 18826 ft 386 kts 227°
2026-04-16 04:31 -22.56796 165.64065 19256 ft 387 kts 227°
2026-04-16 04:31 -22.58703 165.62006 19687 ft 387 kts 227°
2026-04-16 04:31 -22.60606 165.59951 20094 ft 388 kts 227°
2026-04-16 04:32 -22.62518 165.57883 20499 ft 389 kts 227°
2026-04-16 04:32 -22.64435 165.55810 20897 ft 390 kts 227°
2026-04-16 04:32 -22.66351 165.53738 21264 ft 391 kts 227°
2026-04-16 04:32 -22.68278 165.51652 21649 ft 392 kts 227°
2026-04-16 04:33 -22.70209 165.49561 22015 ft 393 kts 227°
2026-04-16 04:33 -22.72145 165.47463 22375 ft 394 kts 227°
2026-04-16 04:33 -22.74080 165.45367 22732 ft 395 kts 227°
2026-04-16 04:33 -22.75999 165.43287 23099 ft 395 kts 227°
2026-04-16 04:34 -22.77944 165.41178 23498 ft 395 kts 227°
2026-04-16 04:34 -22.79889 165.39068 23800 ft 396 kts 228°
2026-04-16 04:34 -22.81835 165.36954 24041 ft 398 kts 228°
2026-04-16 04:34 -22.83796 165.34824 24280 ft 399 kts 228°
2026-04-16 04:35 -22.85763 165.32686 24538 ft 400 kts 228°
2026-04-16 04:35 -22.87728 165.30551 24792 ft 401 kts 228°
2026-04-16 04:35 -22.89704 165.28401 25041 ft 403 kts 228°
2026-04-16 04:35 -22.91687 165.26244 25280 ft 404 kts 228°
2026-04-16 04:36 -22.93669 165.24087 25517 ft 405 kts 228°
2026-04-16 04:36 -22.95663 165.21915 25746 ft 406 kts 229°
2026-04-16 04:36 -22.97663 165.19736 25967 ft 408 kts 229°
2026-04-16 04:36 -22.99670 165.17549 26192 ft 409 kts 229°
2026-04-16 04:37 -23.01676 165.15362 26399 ft 410 kts 229°
2026-04-16 04:37 -23.03695 165.13159 26611 ft 412 kts 229°
2026-04-16 04:37 -23.05716 165.10955 26929 ft 410 kts 229°
2026-04-16 04:37 -23.07726 165.08761 27265 ft 408 kts 229°
2026-04-16 04:38 -23.09704 165.06602 27523 ft 408 kts 229°
2026-04-16 04:38 -23.11733 165.04383 27705 ft 410 kts 229°
2026-04-16 04:38 -23.13720 165.02211 27974 ft 410 kts 229°
2026-04-16 04:38 -23.15725 165.00018 28351 ft 407 kts 230°
2026-04-16 04:39 -23.17710 164.97848 28729 ft 405 kts 230°
2026-04-16 04:39 -23.19693 164.95677 29026 ft 404 kts 230°
2026-04-16 04:39 -23.21675 164.93506 29274 ft 404 kts 230°
2026-04-16 04:39 -23.23661 164.91328 29481 ft 406 kts 230°
2026-04-16 04:40 -23.25653 164.89143 29713 ft 406 kts 230°
2026-04-16 04:40 -23.27635 164.86969 30030 ft 405 kts 230°
2026-04-16 04:40 -23.31634 164.82579 30062 ft 411 kts 230°
2026-04-16 04:41 -23.35682 164.78131 30066 ft 416 kts 230°
2026-04-16 04:41 -23.39775 164.73631 30061 ft 420 kts 230°
2026-04-16 04:42 -23.43209 164.69853 30047 ft 423 kts 230°
2026-04-16 04:42 -23.47389 164.65303 30064 ft 427 kts 230°
2026-04-16 04:43 -23.51625 164.60746 30066 ft 429 kts 229°
2026-04-16 04:43 -23.56580 164.55409 30060 ft 431 kts 229°
2026-04-16 04:44 -23.60151 164.51551 30102 ft 431 kts 229°
2026-04-16 04:44 -23.64412 164.46941 30073 ft 430 kts 229°
2026-04-16 04:45 -23.68623 164.42380 30060 ft 429 kts 229°
2026-04-16 04:45 -23.72877 164.37767 30068 ft 428 kts 229°
2026-04-16 04:46 -23.77075 164.33211 30061 ft 428 kts 230°
2026-04-16 04:46 -23.81297 164.28623 30071 ft 429 kts 230°
2026-04-16 04:47 -23.85526 164.24023 30071 ft 430 kts 230°
2026-04-16 04:47 -23.89766 164.19407 30071 ft 430 kts 230°
2026-04-16 04:48 -23.94001 164.14793 30075 ft 430 kts 230°
2026-04-16 04:48 -23.98243 164.10166 30074 ft 430 kts 230°
2026-04-16 04:49 -24.02483 164.05536 30073 ft 430 kts 230°
2026-04-16 04:49 -24.06715 164.00911 30073 ft 430 kts 230°
2026-04-16 04:50 -24.10955 163.96272 30071 ft 431 kts 230°
2026-04-16 04:50 -24.15172 163.91655 30113 ft 431 kts 230°
2026-04-16 04:51 -24.19406 163.87014 30084 ft 430 kts 230°
2026-04-16 04:51 -24.23629 163.82382 30074 ft 429 kts 230°
2026-04-16 04:52 -24.27848 163.77748 30077 ft 429 kts 230°
2026-04-16 04:52 -24.32053 163.73125 30078 ft 428 kts 230°
2026-04-16 04:53 -24.36253 163.68501 30079 ft 428 kts 230°
2026-04-16 04:53 -24.40459 163.63867 30063 ft 428 kts 230°
2026-04-16 04:54 -24.44641 163.59256 30093 ft 429 kts 230°
2026-04-16 04:54 -24.48845 163.54615 30085 ft 429 kts 230°
2026-04-16 04:55 -24.53056 163.49963 30083 ft 429 kts 230°
2026-04-16 04:55 -24.57257 163.45316 30085 ft 429 kts 230°
2026-04-16 04:56 -24.61465 163.40658 30086 ft 429 kts 230°
2026-04-16 04:56 -24.65663 163.36004 30087 ft 429 kts 230°
2026-04-16 04:57 -24.69868 163.31339 30118 ft 429 kts 230°
2026-04-16 04:57 -24.74064 163.26679 30091 ft 429 kts 230°
2026-04-16 04:58 -24.78237 163.22039 30091 ft 429 kts 230°
2026-04-16 04:58 -24.82438 163.17364 30088 ft 429 kts 230°
2026-04-16 04:59 -24.86631 163.12693 30091 ft 429 kts 230°
2026-04-16 04:59 -24.90831 163.08009 30092 ft 429 kts 230°
2026-04-16 05:00 -24.95023 163.03329 30096 ft 429 kts 230°
2026-04-16 05:00 -24.99209 162.98651 30095 ft 428 kts 230°
2026-04-16 05:01 -25.03362 162.94001 30089 ft 428 kts 230°
2026-04-16 05:01 -25.07557 162.89295 30097 ft 427 kts 230°
2026-04-16 05:02 -25.11700 162.84643 30105 ft 427 kts 230°
2026-04-16 05:02 -25.15868 162.79957 30104 ft 427 kts 230°
2026-04-16 05:03 -25.20030 162.75274 30100 ft 427 kts 230°
2026-04-16 05:04 -25.26273 162.68240 30114 ft 427 kts 230°
2026-04-16 05:04 -25.30427 162.63554 30102 ft 426 kts 230°
2026-04-16 05:05 -25.34565 162.58881 30091 ft 425 kts 230°
2026-04-16 05:05 -25.38677 162.54232 30104 ft 425 kts 230°
2026-04-16 05:06 -25.42811 162.49554 30107 ft 425 kts 230°
2026-04-16 05:06 -25.46943 162.44872 30110 ft 425 kts 230°
2026-04-16 05:07 -25.51081 162.40179 30108 ft 425 kts 230°
2026-04-16 05:07 -25.55206 162.35496 30118 ft 425 kts 230°
2026-04-16 05:08 -25.59331 162.30809 30116 ft 424 kts 230°
2026-04-16 05:08 -25.63450 162.26123 30117 ft 424 kts 230°
2026-04-16 05:09 -25.67539 162.21466 30113 ft 424 kts 230°
2026-04-16 05:09 -25.71649 162.16780 30116 ft 424 kts 230°
2026-04-16 05:10 -25.75770 162.12076 30142 ft 425 kts 230°
2026-04-16 05:10 -25.79883 162.07378 30121 ft 424 kts 230°
2026-04-16 05:11 -25.83996 162.02675 30112 ft 424 kts 230°
2026-04-16 05:11 -25.88097 161.97980 30122 ft 423 kts 230°
2026-04-16 05:12 -25.92195 161.93283 30118 ft 423 kts 230°
2026-04-16 05:12 -25.96294 161.88580 30124 ft 423 kts 230°
2026-04-16 05:13 -26.00391 161.83874 30144 ft 423 kts 230°
2026-04-16 05:13 -26.04450 161.79208 30128 ft 422 kts 230°
2026-04-16 05:14 -26.08529 161.74513 30123 ft 422 kts 230°
2026-04-16 05:14 -26.12602 161.69820 30124 ft 421 kts 230°
2026-04-16 05:15 -26.16676 161.65121 30128 ft 421 kts 230°
2026-04-16 05:15 -26.20740 161.60428 30127 ft 421 kts 230°
2026-04-16 05:16 -26.24802 161.55732 30108 ft 421 kts 231°
2026-04-16 05:16 -26.28865 161.51031 30133 ft 420 kts 230°
2026-04-16 05:17 -26.32917 161.46337 30121 ft 419 kts 231°
2026-04-16 05:17 -26.36927 161.41687 30128 ft 418 kts 231°
2026-04-16 05:18 -26.40961 161.37004 30129 ft 418 kts 231°
2026-04-16 05:18 -26.44984 161.32328 30132 ft 418 kts 231°
2026-04-16 05:19 -26.49005 161.27649 30129 ft 418 kts 231°
2026-04-16 05:19 -26.53031 161.22960 30127 ft 418 kts 231°
2026-04-16 05:20 -26.57053 161.18272 30129 ft 418 kts 231°
2026-04-16 05:20 -26.61085 161.13564 30131 ft 419 kts 231°
2026-04-16 05:21 -26.65117 161.08853 30132 ft 420 kts 231°
2026-04-16 05:21 -26.69151 161.04134 30128 ft 420 kts 231°
2026-04-16 05:22 -26.73167 160.99432 30129 ft 420 kts 231°
2026-04-16 05:22 -26.77201 160.94703 30140 ft 420 kts 231°
2026-04-16 05:23 -26.81233 160.89971 30135 ft 419 kts 231°
2026-04-16 05:23 -26.85249 160.85253 30123 ft 418 kts 231°
2026-04-16 05:24 -26.89255 160.80541 30135 ft 418 kts 231°
2026-04-16 05:24 -26.93265 160.75819 30134 ft 418 kts 231°
2026-04-16 05:25 -26.97269 160.71099 30138 ft 418 kts 231°
2026-04-16 05:25 -27.01278 160.66367 30165 ft 418 kts 231°
2026-04-16 05:26 -27.05281 160.61639 30143 ft 418 kts 231°
2026-04-16 05:26 -27.09259 160.56934 30133 ft 418 kts 231°
2026-04-16 05:27 -27.13252 160.52207 30128 ft 417 kts 231°
2026-04-16 05:27 -27.17248 160.47470 30138 ft 417 kts 231°
2026-04-16 05:28 -27.21236 160.42737 30142 ft 417 kts 231°
2026-04-16 05:28 -27.25225 160.37999 30172 ft 418 kts 231°
2026-04-16 05:29 -27.29217 160.33250 30154 ft 418 kts 231°
2026-04-16 05:29 -27.33212 160.28494 30140 ft 418 kts 231°
2026-04-16 05:30 -27.37176 160.23769 30142 ft 417 kts 231°
2026-04-16 05:30 -27.41157 160.19018 30139 ft 417 kts 232°
2026-04-16 05:31 -27.45143 160.14256 30152 ft 417 kts 232°
2026-04-16 05:31 -27.49123 160.09496 30158 ft 418 kts 232°
2026-04-16 05:32 -27.52433 160.05533 30145 ft 418 kts 232°
2026-04-16 05:32 -27.57083 159.99960 30144 ft 417 kts 232°
2026-04-16 05:33 -27.60380 159.96003 30141 ft 417 kts 232°
2026-04-16 05:33 -27.64355 159.91229 30148 ft 417 kts 232°
2026-04-16 05:34 -27.68326 159.86453 30147 ft 417 kts 232°
2026-04-16 05:34 -27.72291 159.81679 30151 ft 417 kts 232°
2026-04-16 05:35 -27.76258 159.76898 30158 ft 417 kts 232°
2026-04-16 05:35 -27.80216 159.72123 30148 ft 416 kts 232°
2026-04-16 05:36 -27.84174 159.67341 30153 ft 416 kts 232°
2026-04-16 05:36 -27.88120 159.62568 30153 ft 416 kts 232°
2026-04-16 05:37 -27.92070 159.57785 30152 ft 416 kts 232°
2026-04-16 05:37 -27.96010 159.53008 30154 ft 415 kts 232°
2026-04-16 05:38 -27.99952 159.48224 30157 ft 415 kts 232°
2026-04-16 05:38 -28.03858 159.43479 30146 ft 414 kts 232°
2026-04-16 05:39 -28.07774 159.38715 30154 ft 413 kts 232°
2026-04-16 05:39 -28.11684 159.33953 30153 ft 413 kts 232°
2026-04-16 05:40 -28.15589 159.29190 30157 ft 413 kts 232°
2026-04-16 05:40 -28.19499 159.24417 30156 ft 413 kts 232°
2026-04-16 05:41 -28.23395 159.19656 30164 ft 411 kts 232°
2026-04-16 05:41 -28.27269 159.14917 30148 ft 409 kts 232°
2026-04-16 05:42 -28.31138 159.10180 30157 ft 408 kts 232°
2026-04-16 05:42 -28.34974 159.05475 30154 ft 408 kts 232°
2026-04-16 05:43 -28.38826 159.00744 30156 ft 408 kts 232°
2026-04-16 05:43 -28.42684 158.96000 30156 ft 408 kts 232°
2026-04-16 05:44 -28.46531 158.91266 30165 ft 407 kts 232°
2026-04-16 05:44 -28.50364 158.86544 30152 ft 406 kts 232°
2026-04-16 05:45 -28.54191 158.81822 30153 ft 405 kts 232°
2026-04-16 05:45 -28.58005 158.77110 30156 ft 405 kts 232°
2026-04-16 05:46 -28.61823 158.72389 30156 ft 405 kts 232°
2026-04-16 05:46 -28.65634 158.67671 30155 ft 405 kts 232°
2026-04-16 05:47 -28.69438 158.62957 30164 ft 404 kts 232°
2026-04-16 05:47 -28.73209 158.58278 30149 ft 403 kts 232°
2026-04-16 05:48 -28.76989 158.53583 30152 ft 402 kts 232°
2026-04-16 05:48 -28.80768 158.48883 30152 ft 401 kts 232°
2026-04-16 05:49 -28.84536 158.44190 30151 ft 401 kts 232°
2026-04-16 05:49 -28.88302 158.39495 30152 ft 401 kts 232°
2026-04-16 05:50 -28.92079 158.34782 30152 ft 401 kts 232°
2026-04-16 05:50 -28.95847 158.30073 30151 ft 401 kts 232°
2026-04-16 05:51 -28.99615 158.25361 30152 ft 401 kts 232°
2026-04-16 05:51 -29.03354 158.20677 30154 ft 402 kts 232°
2026-04-16 05:52 -29.07123 158.15951 30150 ft 402 kts 232°
2026-04-16 05:52 -29.10889 158.11224 30184 ft 402 kts 232°
2026-04-16 05:53 -29.14648 158.06500 30160 ft 401 kts 232°
2026-04-16 05:53 -29.18397 158.01784 30147 ft 399 kts 232°
2026-04-16 05:54 -29.22129 157.97082 30147 ft 399 kts 232°
2026-04-16 05:54 -29.25858 157.92379 30150 ft 398 kts 232°
2026-04-16 05:55 -29.29558 157.87707 30148 ft 398 kts 232°
2026-04-16 05:55 -29.33280 157.83000 30177 ft 398 kts 232°
2026-04-16 05:56 -29.37002 157.78289 30155 ft 398 kts 232°
2026-04-16 05:56 -29.40716 157.73584 30134 ft 397 kts 232°
2026-04-16 05:57 -29.44419 157.68886 30142 ft 397 kts 232°
2026-04-16 05:57 -29.48116 157.64191 30146 ft 397 kts 233°
2026-04-16 05:58 -29.51787 157.59523 30138 ft 396 kts 233°
2026-04-16 05:58 -29.55483 157.54818 30172 ft 396 kts 232°
2026-04-16 05:59 -29.59174 157.50113 30150 ft 396 kts 233°
2026-04-16 05:59 -29.62861 157.45407 30143 ft 396 kts 233°
2026-04-16 06:00 -29.66547 157.40699 30137 ft 396 kts 233°
2026-04-16 06:00 -29.70230 157.35988 30144 ft 395 kts 233°
2026-04-16 06:01 -29.73883 157.31309 30146 ft 395 kts 233°
2026-04-16 06:01 -29.77582 157.26567 30157 ft 396 kts 233°
2026-04-16 06:02 -29.83075 157.19512 30134 ft 396 kts 233°
2026-04-16 06:02 -29.86757 157.14778 30134 ft 396 kts 233°
2026-04-16 06:03 -29.90433 157.10045 30135 ft 396 kts 233°
2026-04-16 06:03 -29.94110 157.05305 30134 ft 396 kts 233°
2026-04-16 06:04 -29.97781 157.00568 30134 ft 396 kts 233°
2026-04-16 06:04 -30.01459 156.95814 30143 ft 397 kts 233°
2026-04-16 06:05 -30.05121 156.91077 30132 ft 398 kts 233°
2026-04-16 06:05 -30.08803 156.86309 30125 ft 398 kts 233°
2026-04-16 06:06 -30.12485 156.81533 30133 ft 398 kts 233°
2026-04-16 06:06 -30.16169 156.76749 30130 ft 398 kts 233°
2026-04-16 06:07 -30.19851 156.71962 30153 ft 399 kts 233°
2026-04-16 06:07 -30.23541 156.67160 30133 ft 400 kts 233°
2026-04-16 06:08 -30.27234 156.62346 30126 ft 400 kts 233°
2026-04-16 06:08 -30.30931 156.57523 30125 ft 400 kts 233°
2026-04-16 06:09 -30.34627 156.52696 30124 ft 400 kts 233°
2026-04-16 06:09 -30.38318 156.47868 30125 ft 400 kts 233°
2026-04-16 06:10 -30.41984 156.43065 30133 ft 401 kts 233°
2026-04-16 06:10 -30.45682 156.38216 30132 ft 401 kts 233°
2026-04-16 06:11 -30.49386 156.33353 30118 ft 402 kts 233°
2026-04-16 06:11 -30.53090 156.28484 30121 ft 402 kts 233°
2026-04-16 06:12 -30.56788 156.23616 30109 ft 402 kts 233°
2026-04-16 06:12 -30.60455 156.18785 30115 ft 402 kts 233°
2026-04-16 06:13 -30.64160 156.13905 30128 ft 403 kts 233°
2026-04-16 06:13 -30.67859 156.09014 30115 ft 403 kts 233°
2026-04-16 06:14 -30.71564 156.04112 30118 ft 403 kts 233°
2026-04-16 06:14 -30.75260 155.99211 30112 ft 403 kts 233°
2026-04-16 06:15 -30.78957 155.94305 30104 ft 403 kts 233°
2026-04-16 06:15 -30.82677 155.89416 30120 ft 405 kts 231°
2026-04-16 06:16 -30.86975 155.85087 30106 ft 410 kts 225°
2026-04-16 06:16 -30.91364 155.80843 30102 ft 410 kts 226°
2026-04-16 06:17 -30.95743 155.76581 30107 ft 410 kts 226°
2026-04-16 06:17 -31.00118 155.72306 30102 ft 410 kts 226°
2026-04-16 06:18 -31.03750 155.68751 30100 ft 410 kts 226°
2026-04-16 06:18 -31.08831 155.63771 30105 ft 410 kts 226°
2026-04-16 06:19 -31.13204 155.59479 30098 ft 410 kts 226°
2026-04-16 06:19 -31.16831 155.55915 30102 ft 410 kts 226°
2026-04-16 06:20 -31.21195 155.51622 30103 ft 410 kts 226°
2026-04-16 06:20 -31.25561 155.47323 30110 ft 411 kts 226°
2026-04-16 06:21 -31.29934 155.43010 30103 ft 412 kts 226°
2026-04-16 06:21 -31.34312 155.38688 30099 ft 412 kts 226°
2026-04-16 06:22 -31.38689 155.34361 30094 ft 412 kts 226°
2026-04-16 06:22 -31.43066 155.30029 30094 ft 412 kts 226°
2026-04-16 06:23 -31.47450 155.25684 30099 ft 413 kts 226°
2026-04-16 06:23 -31.51833 155.21334 30092 ft 413 kts 226°
2026-04-16 06:24 -31.56196 155.16999 30086 ft 414 kts 226°
2026-04-16 06:24 -31.60589 155.12629 30090 ft 414 kts 226°
2026-04-16 06:25 -31.64976 155.08258 30090 ft 414 kts 226°
2026-04-16 06:25 -31.69371 155.03875 30096 ft 415 kts 226°
2026-04-16 06:26 -31.73765 154.99486 30093 ft 415 kts 226°
2026-04-16 06:26 -31.78164 154.95086 30088 ft 415 kts 226°
2026-04-16 06:27 -31.82567 154.90678 30086 ft 415 kts 226°
2026-04-16 06:27 -31.86965 154.86270 30111 ft 415 kts 226°
2026-04-16 06:28 -31.91372 154.81844 30091 ft 416 kts 226°
2026-04-16 06:28 -31.95779 154.77413 30085 ft 417 kts 226°
2026-04-16 06:29 -32.00181 154.72969 30081 ft 417 kts 226°
2026-04-16 06:29 -32.04586 154.68527 30083 ft 417 kts 226°
2026-04-16 06:30 -32.08992 154.64081 30091 ft 417 kts 226°
2026-04-16 06:30 -32.13375 154.59652 30083 ft 418 kts 226°
2026-04-16 06:31 -32.17797 154.55178 30079 ft 418 kts 226°
2026-04-16 06:31 -32.22220 154.50696 30080 ft 419 kts 226°
2026-04-16 06:32 -32.26644 154.46209 30075 ft 419 kts 226°
2026-04-16 06:32 -32.31075 154.41706 30084 ft 420 kts 226°
2026-04-16 06:33 -32.35480 154.37225 30071 ft 421 kts 226°
2026-04-16 06:33 -32.39914 154.32708 30067 ft 421 kts 226°
2026-04-16 06:34 -32.44352 154.28182 30075 ft 421 kts 226°
2026-04-16 06:34 -32.48787 154.23653 30096 ft 421 kts 226°
2026-04-16 06:35 -32.53234 154.19104 30072 ft 422 kts 226°
2026-04-16 06:35 -32.57686 154.14544 30064 ft 423 kts 226°
2026-04-16 06:36 -32.62139 154.09978 30064 ft 423 kts 226°
2026-04-16 06:36 -32.66590 154.05408 30072 ft 423 kts 226°
2026-04-16 06:37 -32.71043 154.00827 30070 ft 424 kts 226°
2026-04-16 06:37 -32.75479 153.96260 30062 ft 424 kts 226°
2026-04-16 06:38 -32.79942 153.91659 30065 ft 424 kts 226°
2026-04-16 06:38 -32.84328 153.86971 30058 ft 420 kts 233°
2026-04-16 06:39 -32.87973 153.81585 30076 ft 418 kts 236°
2026-04-16 06:39 -32.91585 153.76147 30063 ft 419 kts 236°
2026-04-16 06:40 -32.95219 153.70726 30049 ft 419 kts 236°
2026-04-16 06:40 -32.98849 153.65336 30055 ft 419 kts 236°
2026-04-16 06:41 -33.02502 153.59912 30053 ft 419 kts 236°
2026-04-16 06:41 -33.06156 153.54481 30051 ft 419 kts 236°
2026-04-16 06:42 -33.09805 153.49049 30050 ft 419 kts 236°
2026-04-16 06:42 -33.13425 153.43650 30050 ft 419 kts 236°
2026-04-16 06:43 -33.17066 153.38212 30047 ft 419 kts 236°
2026-04-16 06:43 -33.20699 153.32778 30044 ft 419 kts 236°
2026-04-16 06:44 -33.24335 153.27331 30050 ft 420 kts 236°
2026-04-16 06:44 -33.27972 153.21875 30048 ft 420 kts 236°
2026-04-16 06:45 -33.31614 153.16404 30043 ft 420 kts 236°
2026-04-16 06:45 -33.35254 153.10928 30033 ft 420 kts 236°
2026-04-16 06:46 -33.38884 153.05457 30042 ft 420 kts 236°
2026-04-16 06:46 -33.42460 153.00071 30032 ft 398 kts 236°
2026-04-16 06:47 -33.44150 152.97531 30014 ft 382 kts 237°
2026-04-16 06:47 -33.45748 152.95124 30016 ft 367 kts 237°
2026-04-16 06:47 -33.47302 152.92779 30019 ft 352 kts 237°
2026-04-16 06:47 -33.48801 152.90512 29883 ft 344 kts 237°
2026-04-16 06:48 -33.50266 152.88290 29664 ft 335 kts 237°
2026-04-16 06:48 -33.51706 152.86103 29278 ft 332 kts 237°
2026-04-16 06:48 -33.53123 152.83950 28910 ft 328 kts 237°
2026-04-16 06:48 -33.54530 152.81811 28555 ft 324 kts 237°
2026-04-16 06:49 -33.55920 152.79698 28159 ft 321 kts 237°
2026-04-16 06:49 -33.57299 152.77600 27795 ft 319 kts 237°
2026-04-16 06:49 -33.58671 152.75512 27449 ft 317 kts 237°
2026-04-16 06:49 -33.60037 152.73433 27084 ft 318 kts 237°
2026-04-16 06:50 -33.61423 152.71316 26725 ft 329 kts 237°
2026-04-16 06:50 -33.62857 152.69122 26341 ft 337 kts 237°
2026-04-16 06:50 -33.64306 152.66913 25936 ft 336 kts 237°
2026-04-16 06:50 -33.65745 152.64724 25550 ft 333 kts 237°
2026-04-16 06:51 -33.67177 152.62543 25164 ft 331 kts 237°
2026-04-16 06:51 -33.68579 152.60405 24792 ft 329 kts 237°
2026-04-16 06:51 -33.69991 152.58251 24416 ft 328 kts 237°
2026-04-16 06:51 -33.71400 152.56099 24029 ft 327 kts 236°
2026-04-16 06:52 -33.72805 152.53950 23641 ft 326 kts 236°
2026-04-16 06:52 -33.74204 152.51809 23216 ft 324 kts 236°
2026-04-16 06:52 -33.75594 152.49683 22834 ft 322 kts 236°
2026-04-16 06:52 -33.76975 152.47568 22448 ft 320 kts 236°
2026-04-16 06:53 -33.78343 152.45472 22075 ft 317 kts 236°
2026-04-16 06:53 -33.79701 152.43390 21708 ft 315 kts 236°
2026-04-16 06:53 -33.81047 152.41325 21348 ft 312 kts 236°
2026-04-16 06:53 -33.82382 152.39276 20996 ft 310 kts 236°
2026-04-16 06:54 -33.83706 152.37241 20643 ft 308 kts 236°
2026-04-16 06:54 -33.85024 152.35215 20293 ft 306 kts 236°
2026-04-16 06:54 -33.86314 152.33228 19948 ft 305 kts 236°
2026-04-16 06:54 -33.87630 152.31199 19602 ft 303 kts 236°
2026-04-16 06:55 -33.88925 152.29202 19259 ft 302 kts 236°
2026-04-16 06:55 -33.90213 152.27218 18924 ft 301 kts 236°
2026-04-16 06:55 -33.91498 152.25238 18595 ft 299 kts 236°
2026-04-16 06:55 -33.92778 152.23265 18256 ft 299 kts 236°
2026-04-16 06:56 -33.94039 152.21319 17864 ft 298 kts 236°
2026-04-16 06:56 -33.95309 152.19361 17502 ft 296 kts 236°
2026-04-16 06:56 -33.96571 152.17413 17158 ft 294 kts 236°
2026-04-16 06:56 -33.97827 152.15474 16817 ft 292 kts 236°
2026-04-16 06:57 -33.99073 152.13550 16496 ft 290 kts 236°
2026-04-16 06:57 -34.00308 152.11639 16160 ft 288 kts 236°
2026-04-16 06:57 -34.01535 152.09741 15841 ft 287 kts 236°
2026-04-16 06:57 -34.02674 152.07792 15501 ft 282 kts 248°
2026-04-16 06:58 -34.03207 152.05547 15098 ft 280 kts 262°
2026-04-16 06:58 -34.03209 152.03195 14702 ft 281 kts 275°
2026-04-16 06:58 -34.02976 152.00848 14333 ft 282 kts 276°
2026-04-16 06:58 -34.02717 151.98513 14016 ft 281 kts 277°
2026-04-16 06:59 -34.02460 151.96185 13683 ft 280 kts 276°
2026-04-16 06:59 -34.02210 151.93867 13340 ft 278 kts 276°
2026-04-16 06:59 -34.01966 151.91562 13010 ft 276 kts 276°
2026-04-16 06:59 -34.01728 151.89272 12699 ft 274 kts 276°
2026-04-16 07:00 -34.01494 151.86997 12385 ft 273 kts 276°
2026-04-16 07:00 -34.01262 151.84738 12085 ft 271 kts 276°
2026-04-16 07:00 -34.01030 151.82487 11783 ft 269 kts 276°
2026-04-16 07:01 -34.00573 151.78057 11183 ft 267 kts 276°
2026-04-16 07:01 -34.00345 151.75840 10886 ft 266 kts 276°
2026-04-16 07:01 -34.00117 151.73628 10580 ft 265 kts 276°
2026-04-16 07:01 -33.99891 151.71428 10371 ft 261 kts 276°
2026-04-16 07:02 -33.99669 151.69265 10233 ft 259 kts 276°
2026-04-16 07:02 -33.99448 151.67120 10123 ft 257 kts 276°
2026-04-16 07:02 -33.99228 151.64975 9965 ft 259 kts 276°
2026-04-16 07:02 -33.99004 151.62809 9647 ft 260 kts 276°
2026-04-16 07:03 -33.98780 151.60655 9360 ft 258 kts 276°
2026-04-16 07:03 -33.98560 151.58540 9075 ft 257 kts 276°
2026-04-16 07:03 -33.98338 151.56408 8817 ft 255 kts 276°
2026-04-16 07:03 -33.98118 151.54296 8571 ft 253 kts 276°
2026-04-16 07:04 -33.97900 151.52195 8286 ft 254 kts 276°
2026-04-16 07:04 -33.97679 151.50076 7912 ft 256 kts 276°
2026-04-16 07:04 -33.97457 151.47944 7594 ft 256 kts 276°
2026-04-16 07:04 -33.97233 151.45814 7274 ft 256 kts 276°
2026-04-16 07:05 -33.97009 151.43683 6959 ft 256 kts 276°
2026-04-16 07:05 -33.96798 151.41551 6647 ft 256 kts 272°
2026-04-16 07:05 -33.96907 151.40151 6414 ft 253 kts 254°
2026-04-16 07:05 -33.98117 151.37793 6049 ft 246 kts 226°
2026-04-16 07:06 -33.99540 151.36746 5982 ft 237 kts 204°
2026-04-16 07:06 -34.00627 151.36552 5714 ft 245 kts 178°
2026-04-16 07:06 -34.02273 151.37114 5412 ft 243 kts 174°
2026-04-16 07:06 -34.03864 151.36928 5045 ft 226 kts 208°
2026-04-16 07:07 -34.05341 151.36322 4700 ft 229 kts 192°
2026-04-16 07:07 -34.06934 151.36472 4405 ft 231 kts 171°
2026-04-16 07:07 -34.08479 151.36945 4111 ft 228 kts 171°
2026-04-16 07:07 -34.10012 151.37402 3808 ft 226 kts 171°
2026-04-16 07:08 -34.11535 151.37851 3508 ft 224 kts 172°
2026-04-16 07:08 -34.13054 151.37952 3199 ft 215 kts 197°
2026-04-16 07:08 -34.14353 151.37254 2932 ft 199 kts 225°
2026-04-16 07:08 -34.15148 151.35963 2665 ft 193 kts 253°
2026-04-16 07:09 -34.15297 151.34382 2405 ft 190 kts 277°
2026-04-16 07:09 -34.15129 151.32798 2121 ft 191 kts 279°
2026-04-16 07:09 -34.14965 151.31201 2044 ft 196 kts 278°
2026-04-16 07:09 -34.14772 151.29584 2007 ft 191 kts 281°
2026-04-16 07:10 -34.14402 151.28078 1992 ft 187 kts 302°
2026-04-16 07:10 -34.13565 151.26902 2012 ft 185 kts 313°
2026-04-16 07:10 -34.12676 151.25772 2015 ft 184 kts 313°
2026-04-16 07:10 -34.11768 151.24622 2014 ft 194 kts 314°
2026-04-16 07:11 -34.10859 151.23455 2002 ft 189 kts 316°
2026-04-16 07:11 -34.09704 151.22730 2009 ft 191 kts 347°
2026-04-16 07:11 -34.08414 151.22381 1998 ft 188 kts 342°
2026-04-16 07:11 -34.07179 151.21991 1966 ft 181 kts 346°
2026-04-16 07:12 -34.05970 151.21707 1763 ft 173 kts 347°
2026-04-16 07:12 -34.04807 151.21400 1545 ft 169 kts 346°
2026-04-16 07:12 -34.03652 151.21094 1332 ft 169 kts 348°
2026-04-16 07:12 -34.02515 151.20797 1097 ft 164 kts 348°
2026-04-16 07:13 -34.01419 151.20512 885 ft 158 kts 349°
2026-04-16 07:13 -34.00361 151.20235 686 ft 154 kts 349°
2026-04-16 07:13 -33.99315 151.19963 494 ft 156 kts 352°
2026-04-16 07:13 -33.98244 151.19684 233 ft 162 kts 351°
2026-04-16 07:14 -33.97160 151.19404 69 ft 164 kts 350°
2026-04-16 07:14 -33.96116 151.19125 27 ft 139 kts 350°
2026-04-16 07:14 -33.95413 151.18921 23 ft 49 kts 338°
2026-04-16 07:14 -33.95178 151.18725 28 ft 25 kts 319°
2026-04-16 07:15 -33.95093 151.18618 29 ft 13 kts 290°
2026-04-16 07:15 -33.95113 151.18445 29 ft 27 kts 257°
2026-04-16 07:15 -33.95154 151.18218 29 ft 24 kts 257°
2026-04-16 07:15 -33.95181 151.18074 29 ft 20 kts 257°
2026-04-16 07:16 -33.95209 151.17917 29 ft 20 kts 258°
2026-04-16 07:16 -33.95219 151.17859 29 ft 0 kts 258°
2026-04-16 07:16 -33.95235 151.17762 28 ft 28 kts 257°
2026-04-16 07:17 -33.95254 151.17662 28 ft 0 kts 257°
2026-04-16 07:18 -33.95257 151.17643 28 ft 15 kts 257°
2026-04-16 07:18 -33.95183 151.17539 28 ft 28 kts 348°
2026-04-16 07:18 -33.94932 151.17470 28 ft 47 kts 346°
2026-04-16 07:18 -33.94673 151.17403 29 ft 30 kts 349°
2026-04-16 07:19 -33.94473 151.17354 29 ft 28 kts 349°
2026-04-16 07:19 -33.94288 151.17307 29 ft 27 kts 347°
2026-04-16 07:19 -33.94111 151.17262 28 ft 25 kts 348°
2026-04-16 07:19 -33.93989 151.17201 28 ft 16 kts 288°
2026-04-16 07:20 -33.93967 151.17109 29 ft 11 kts 326°
2026-04-16 07:20 -33.93885 151.17086 29 ft 13 kts 350°
2026-04-16 07:20 -33.93848 151.17024 29 ft 10 kts 257°
2026-04-16 07:20 -33.93859 151.16974 29 ft 0 kts 255°